Regional Weather Roundup
Issued by NWS Upton, NY

Current Version | Previous Version | Graphics & Text | Print | Product List | Glossary Off
Versions: 1 2 3 4 5 6 7 8 9 10 11 12 13 14 15 16 17 18 19 20 21 22 23 24 25 26 27 28 29

000
ASUS41 KOKX 212005
RWROKX

REGIONAL WEATHER ROUNDUP
NATIONAL WEATHER SERVICE NEW YORK NY
400 PM EDT TUE OCT 21 2014

NOTE: "FAIR" INDICATES FEW OR NO CLOUDS BELOW 12,000 FEET WITH NO
SIGNIFICANT WEATHER AND/OR OBSTRUCTIONS TO VISIBILITY.

NYZ071-072-176-178-NJZ106-104-212100-
NEW YORK CITY METRO AREA


CITY           SKY/WX    TMP DP  RH WIND       PRES   REMARKS
CENTRAL PARK   PTSUNNY   65  52  62 VRB5      29.85F
LAGUARDIA APRT PTSUNNY   65  54  67 E10       29.83S
KENNEDY INTL   CLOUDY    63  57  81 E8        29.85R
NEWARK/LIBERTY PTSUNNY   66  53  63 VRB7      29.82F
BRNX BOT. GARD   N/A     63  52  67 SE9       29.86R
TETERBORO      CLOUDY    64  53  67 SE6       29.82S
$$

NYZ177-179-078>081-212100-
LONG ISLAND NEW YORK

CITY           SKY/WX    TMP DP  RH WIND       PRES   REMARKS
FARMINGDALE    RAIN      61  57  87 E10       29.84F
ISLIP          LGT RAIN  62  56  80 E7        29.83F
SHIRLEY        PTSUNNY   65  55  70 S5        29.87R
WESTHAMPTON    MOSUNNY   65  54  67 E6        29.87S
MONTAUK POINT    N/A     67  51  56 CALM      29.88S
$$

NYZ052-065-067-212100-
HUDSON VALLEY

CITY           SKY/WX    TMP DP  RH WIND       PRES   REMARKS
WHITE PLAINS   PTSUNNY   62  50  64 SE7       29.84F
NEWBURGH       NOT AVBL
MONTGOMERY     PTSUNNY   54  50  86 NE7       29.86F
POUGHKEEPSIE   CLOUDY    56  50  80 N7        29.87F
ALBANY         CLOUDY    55  50  83 N5        29.92R
$$

NJZ001-105-106-008-010-013-015-019>022-104-212100-
NEW JERSEY

CITY           SKY/WX    TMP DP  RH WIND       PRES   REMARKS
NEWARK/LIBERTY PTSUNNY   66  53  63 VRB7      29.82F
TETERBORO      CLOUDY    64  53  67 SE6       29.82S
CALDWELL       HVY RAIN  57  53  86 NE6       29.84S FOG
MORRISTOWN     PTSUNNY   64  54  68 SE6       29.83S
SOMERVILLE     CLOUDY    68  48  48 E6        29.79F
SUSSEX         CLOUDY    57  49  74 NE8       29.86R
ANDOVER          N/A     54  51  90 VRB3      29.85R
TRENTON        MOSUNNY   68  46  45 VRB3      29.80S
MILLVILLE      MOSUNNY   70  47  43 W5        29.80S
ATLANTIC CITY  SUNNY     68  52  56 S6        29.80S
WRIGHTSTOWN    SUNNY     69  48  46 VRB1      29.79S
TOMS RIVER     CLOUDY    63  55  77 CALM      29.82R
BELMAR         CLOUDY    61  54  77 E6        29.82S
$$

PAZ047>061-062-071-212100-
EASTERN PENNSYLVANIA

CITY           SKY/WX    TMP DP  RH WIND       PRES   REMARKS
PHILADELPHIA   MOSUNNY   69  47  45 SW6       29.81S
ALLENTOWN      PTSUNNY   65  46  50 VRB3      29.82S
SCRANTON       CLOUDY    60  46  59 SW3       29.84R
$$

CTZ002-004>006-009-010-012-RIZ004-006-007-MAZ004-011-015-212100-
SOUTHERN NEW ENGLAND
 IN CT

CITY           SKY/WX    TMP DP  RH WIND       PRES   REMARKS
BRADLEY INTL   MOSUNNY   66  49  54 N7        29.86S
HARTFORD       MOSUNNY   65  49  56 E7        29.86S
DANBURY        PTSUNNY   62  30  29 SE9       29.86F
WTRBRY/OXFORD  CLOUDY    63  45  51 S7        29.86S
BRIDGEPORT     LGT RAIN  62  56  80 E9        29.85F
MERIDEN        CLOUDY    65  43  44 S5        29.86S
NEW HAVEN      RAIN      63  55  75 E5        29.86S
CHESTER        MOCLDY    64  52  63 S5        29.88R
GROTON         SUNNY     64  55  72 E6        29.86F
WILLIMANTIC    MOSUNNY   68  44  42 SW5       29.87S

 IN RI

CITY           SKY/WX    TMP DP  RH WIND       PRES   REMARKS
PROVIDENCE     PTSUNNY   63  54  72 S8        29.89S
BLOCK ISLAND   SUNNY     64  55  72 NE5       29.88R
WESTERLY       SUNNY     65  54  67 SE7       29.88S

 IN MA

CITY           SKY/WX    TMP DP  RH WIND       PRES   REMARKS
BOSTON         PTSUNNY   57  55  93 E6        29.91F
WORCESTER      PTSUNNY   60  50  69 NE7       29.90S
WESTFIELD      PTSUNNY   59  48  67 N8        29.88F
PROVINCETOWN   CLOUDY    61  55  82 SE7       29.92R
NANTUCKET      CLOUDY    59  55  87 E12G21    29.90F
$$

ANZ330-335-338-340-345-350-353-355-212100-
COASTAL MARINE OBSERVATIONS


STATION/POSITION TIME  SKY/WX   TEMP    WIND        PRES    VSBY  WAVE
                                AIR SEA DIR/SP/G                  HT/PER
                 (UTC)          (F)     (DEG/KT/KT) (MB)    (MI)  (FT/S)
NY HARB ENTRANCE NOT AVBL
4S FIRE IS       2000               64                N/A           3/ 6
20S FIRE ISLAND  2000            64 64  100/ 10/ 12 1009.7          3/ 6
23SW MTP         2000                                 N/A           3/ 6
HUDSON CANYON    2000            67 67  180/  8/ 10 1009.7          5/ 7
EXECUTION ROCKS  2000            62 63  110/  6/  8   N/A
WESTERN LI SOUND 2000            63      90/  6/  8   N/A           1
CENTRAL LI SOUND 1900            64 65   70/  6/  8   N/A           1
EASTERN LI SOUND 1900            64 64  120/  6/  8   N/A
ROBBINS REEF     2000            63     120/ 14/ 17 1008.7
$$


>>>>>>>>>>>>>>>>>>>>>>>>>>>> KEY <<<<<<<<<<<<<<<<<<<<<<<<<<<
>                                                          <
>     SKY/WX - SKY CONDITION/PRESENT WEATHER               <
>     TMP    - TEMPERATURE IN FAHRENHEIT                   <
>     DP     - DEWPOINT IN FAHRENHEIT                      <
>     RH     - RELATIVE HUMIDITY IN PERCENT                <
>     WIND   - DIRECTION AND SPEED IN MPH                  <
>     PRES   - MEAN SEA LEVEL PRESSURE IN INCHES OF HG     <
>     WCI    - WIND CHILL INDEX                            <
>     VSB    - VISIBILITY IN MILES                         <
>     HX     - HEAT INDEX                                  <
>     TC     - TEMPERATURE IN CELSIUS                      <
>     VRB    - VARIABLE WIND DIRECTION                     <
>                                                          <
>>>>>>>>>>>>>>>>>>>>>>>>>>>> KEY <<<<<<<<<<<<<<<<<<<<<<<<<<<





USA.gov is the U.S. government's official web portal to all federal, state and local government web resources and services.